This demonstration page uses our WeatherBlox Daily Observations layout. Learn more.

Left ArrowRight Arrow

39.01783, -85.05884

Hourly Observations for November 12, 2021

Temp ( °F °C ) Dew Point ( °F °C ) Humidity (%) Winds ( mph kmh ) Pressure ( in mb ) Visibility ( mi km ) Precip ( " mm )
12:52 am 00:52 Clear 43 6.1 40 4.4 89 89 SSW 6 9 29.92 1013 10 16 N/A
1:52 am 01:52 Clear 42 5.6 40 4.4 92 92 SSW 6 9 29.93 1014 10 16 N/A
2:52 am 02:52 Clear 41 5 39 3.9 93 93 S 8 13 29.93 1014 10 16 N/A
3:52 am 03:52 Clear 41 5 39 3.9 93 93 S 8 13 29.93 1013 10 16 N/A
4:52 am 04:52 Clear 39 3.9 37 2.8 93 93 S 8 13 29.92 1013 10 16 N/A
5:52 am 05:52 Clear 40 4.4 37 2.8 89 89 S 9 15 29.92 1013 10 16 N/A
6:52 am 06:52 Clear 40 4.4 37 2.8 89 89 S 9 15 29.91 1013 10 16 N/A
7:52 am 07:52 Sunny 40 4.4 38 3.3 93 93 SSW 10 17 29.92 1013 7 11 N/A
8:52 am 08:52 Sunny 44 6.7 39 3.9 83 83 S 16 26 29.92 1013 10 16 N/A
9:52 am 09:52 Mostly Sunny 47 8.3 38 3.3 71 71 S 16 26 29.91 1013 10 16 N/A
10:52 am 10:52 Partly Cloudy 50 10 37 2.8 61 61 SSW 14 22 29.91 1013 10 16 N/A
11:52 am 11:52 Partly Cloudy 51 10.6 34 1.1 52 52 SW 22 35 29.91 1013 10 16 N/A
12:52 pm 12:52 Cloudy 50 10 33 0.6 52 52 SW 16 26 29.89 1012 10 16 N/A
1:52 pm 13:52 Cloudy 49 9.4 29 -1.7 46 46 SSW 15 24 29.88 1012 10 16 N/A
2:52 pm 14:52 Cloudy with Light Rain 47 8.3 31 -0.6 54 54 SW 20 31 29.88 1012 10 16 0.00 0.00
3:52 pm 15:52 Cloudy with Light Rain 42 5.6 34 1.1 73 73 SW 17 28 29.91 1013 10 16 0.01 0.25
4:52 pm 16:52 Cloudy 43 6.1 34 1.1 71 71 SW 13 20 29.89 1012 10 16 0.01 0.25
5:52 pm 17:52 Cloudy 43 6.1 37 2.8 80 80 SSW 12 19 29.88 1012 10 16 N/A
6:52 pm 18:52 Cloudy 43 6.1 37 2.8 80 80 SSW 7 11 29.88 1012 10 16 0.00 0.00
7:30 pm 19:30 Cloudy 44 6.7 38 3.3 79 79 WSW 8 13 29.90 1013 10 16 N/A
7:52 pm 19:52 Cloudy 43 6.1 37 2.8 80 80 W 16 26 29.89 1012 10 16 0.00 0.00
8:35 pm 20:35 Cloudy with Light Rain 41 5 37 2.8 86 86 W 10 17 29.93 1013 6 10 0.01 0.25
8:52 pm 20:52 Cloudy with Light Rain 40 4.4 36 2.2 86 86 WNW 18 30 29.91 1013 10 16 0.02 0.51
8:58 pm 20:58 Cloudy with Light Rain 40 4.4 35 1.7 83 83 NW 18 30 29.94 1014 8 13 0.00 0.00
9:07 pm 21:07 Cloudy with Light Rain 40 4.4 35 1.7 83 83 NW 15 24 29.94 1014 10 16 0.00 0.00
9:22 pm 21:22 Cloudy 40 4.4 35 1.7 83 83 NW 13 20 29.95 1014 10 16 0.00 0.00
9:40 pm 21:40 Cloudy with Light Rain 39 3.9 34 1.1 82 82 WNW 14 22 29.96 1015 10 16 0.00 0.00
9:52 pm 21:52 Cloudy with Light Rain 39 3.9 33 0.6 79 79 WNW 16 26 29.94 1014 10 16 0.00 0.00
10:26 pm 22:26 Cloudy with Light Rain 37 2.8 32 undefined 82 82 NW 13 20 29.99 1015 9 14 0.01 0.25
10:40 pm 22:40 Cloudy with Light Rain 36 2.2 32 undefined 86 86 WNW 10 17 30.00 1016 10 16 0.01 0.25
10:52 pm 22:52 Cloudy with Light Rain 36 2.2 32 undefined 86 86 W 7 11 29.96 1014 10 16 0.01 0.25
11:52 pm 23:52 Cloudy 36 2.2 33 0.6 89 89 SW 3 6 29.95 1014 10 16 0.00 0.00

Powered by AerisWeather